Time,TemperatureF,DewpointF,PressureIn,WindDirection,WindDirectionDegrees,WindSpeedMPH,WindSpeedGustMPH,Humidity,HourlyPrecipIn,Conditions,Clouds,dailyrainin,SoftwareType,DateUTC
2013-07-03 00:09:00,57.2,55.0,30.21,NNW,345,0.0,1.0,91,0.00,,,0.00,weatherlink.com 1.10,2013-07-03 07:09:00,
2013-07-03 00:24:00,56.7,55.0,30.21,NNW,345,0.0,0.0,92,0.00,,,0.00,weatherlink.com 1.10,2013-07-03 07:24:00,
2013-07-03 00:54:00,56.0,54.0,30.21,NNW,345,0.0,0.0,93,0.00,,,0.00,weatherlink.com 1.10,2013-07-03 07:54:00,
2013-07-03 01:09:00,55.8,54.0,30.21,NNW,345,0.0,0.0,93,0.00,,,0.00,weatherlink.com 1.10,2013-07-03 08:09:00,
2013-07-03 01:24:00,55.5,54.0,30.22,NNW,345,0.0,0.0,94,0.00,,,0.00,weatherlink.com 1.10,2013-07-03 08:24:00,
2013-07-03 01:39:00,55.2,54.0,30.22,NNW,345,0.0,0.0,94,0.00,,,0.00,weatherlink.com 1.10,2013-07-03 08:39:00,
2013-07-03 01:54:00,55.2,54.0,30.22,NNW,345,0.0,0.0,94,0.00,,,0.00,weatherlink.com 1.10,2013-07-03 08:54:00,
2013-07-03 02:09:00,55.1,54.0,30.22,NNW,345,0.0,0.0,94,0.00,,,0.00,weatherlink.com 1.10,2013-07-03 09:09:00,
2013-07-03 02:24:00,55.1,54.0,30.21,NNW,345,0.0,0.0,94,0.00,,,0.00,weatherlink.com 1.10,2013-07-03 09:24:00,
2013-07-03 02:39:00,55.1,54.0,30.21,NNW,345,0.0,1.0,94,0.00,,,0.00,weatherlink.com 1.10,2013-07-03 09:39:00,
2013-07-03 03:09:00,54.7,53.0,30.22,NNW,345,0.0,0.0,94,0.00,,,0.00,weatherlink.com 1.10,2013-07-03 10:09:00,
2013-07-03 03:24:00,54.5,53.0,30.22,NNW,345,0.0,0.0,95,0.00,,,0.00,weatherlink.com 1.10,2013-07-03 10:24:00,
2013-07-03 03:39:00,54.3,53.0,30.22,NNW,345,0.0,0.0,94,0.00,,,0.00,weatherlink.com 1.10,2013-07-03 10:39:00,
2013-07-03 03:54:00,54.2,53.0,30.22,NNW,345,0.0,0.0,95,0.00,,,0.00,weatherlink.com 1.10,2013-07-03 10:54:00,
2013-07-03 04:39:00,53.9,53.0,30.23,NNW,348,0.0,0.0,95,0.00,,,0.00,weatherlink.com 1.10,2013-07-03 11:39:00,
2013-07-03 04:54:00,53.9,53.0,30.23,NNW,348,0.0,0.0,95,0.00,,,0.00,weatherlink.com 1.10,2013-07-03 11:54:00,
2013-07-03 05:09:00,53.6,52.0,30.23,NNW,348,0.0,0.0,95,0.00,,,0.00,weatherlink.com 1.10,2013-07-03 12:09:00,
2013-07-03 05:24:00,53.4,52.0,30.23,NNW,348,0.0,0.0,95,0.00,,,0.00,weatherlink.com 1.10,2013-07-03 12:24:00,
2013-07-03 05:54:00,53.0,52.0,30.24,NNW,348,0.0,0.0,95,0.00,,,0.00,weatherlink.com 1.10,2013-07-03 12:54:00,
2013-07-03 06:09:00,53.0,52.0,30.24,NNW,348,0.0,0.0,95,0.00,,,0.00,weatherlink.com 1.10,2013-07-03 13:09:00,
2013-07-03 06:24:00,53.0,52.0,30.25,NNW,348,0.0,0.0,95,0.00,,,0.00,weatherlink.com 1.10,2013-07-03 13:24:00,
2013-07-03 06:39:00,52.9,52.0,30.25,NNW,348,0.0,0.0,95,0.00,,,0.00,weatherlink.com 1.10,2013-07-03 13:39:00,
2013-07-03 06:54:00,52.9,52.0,30.25,NNW,348,0.0,0.0,95,0.00,,,0.00,weatherlink.com 1.10,2013-07-03 13:54:00,
2013-07-03 07:09:00,53.2,52.0,30.25,NNW,348,1.0,1.0,95,0.00,,,0.00,weatherlink.com 1.10,2013-07-03 14:09:00,
2013-07-03 07:24:00,53.5,52.0,30.24,NNW,348,0.0,0.0,95,0.00,,,0.00,weatherlink.com 1.10,2013-07-03 14:24:00,
2013-07-03 07:39:00,53.7,52.0,30.24,NNW,348,0.0,0.0,95,0.00,,,0.00,weatherlink.com 1.10,2013-07-03 14:39:00,
2013-07-03 07:54:00,54.0,53.0,30.24,NNW,348,0.0,0.0,95,0.00,,,0.00,weatherlink.com 1.10,2013-07-03 14:54:00,
2013-07-03 08:09:00,54.5,53.0,30.25,NNW,348,0.0,0.0,95,0.00,,,0.00,weatherlink.com 1.10,2013-07-03 15:09:00,
2013-07-03 08:24:00,55.2,54.0,30.25,NNW,348,0.0,0.0,95,0.00,,,0.00,weatherlink.com 1.10,2013-07-03 15:24:00,
2013-07-03 08:39:00,57.3,55.0,30.25,West,277,4.0,6.0,92,0.00,,,0.00,weatherlink.com 1.10,2013-07-03 15:39:00,
2013-07-03 09:09:00,59.4,55.0,30.25,West,267,4.0,5.0,86,0.00,,,0.00,weatherlink.com 1.10,2013-07-03 16:09:00,
2013-07-03 09:24:00,59.7,55.0,30.25,WNW,291,2.0,7.0,84,0.00,,,0.00,weatherlink.com 1.10,2013-07-03 16:24:00,
2013-07-03 09:39:00,60.3,55.0,30.25,WNW,294,4.0,7.0,83,0.00,,,0.00,weatherlink.com 1.10,2013-07-03 16:39:00,
2013-07-03 09:54:00,60.5,55.0,30.25,WNW,303,4.0,8.0,82,0.00,,,0.00,weatherlink.com 1.10,2013-07-03 16:54:00,
2013-07-03 10:09:00,60.4,55.0,30.25,NNW,338,1.0,9.0,82,0.00,,,0.00,weatherlink.com 1.10,2013-07-03 17:09:00,
2013-07-03 10:24:00,60.7,55.0,30.25,WNW,302,2.0,8.0,82,0.00,,,0.00,weatherlink.com 1.10,2013-07-03 17:24:00,
2013-07-03 10:40:00,61.0,56.0,30.25,NNW,329,3.0,8.0,82,0.00,,,0.00,weatherlink.com 1.10,2013-07-03 17:40:00,
2013-07-03 11:10:00,61.3,55.0,30.26,West,275,5.0,8.0,81,0.00,,,0.00,weatherlink.com 1.10,2013-07-03 18:10:00,
2013-07-03 11:25:00,61.4,56.0,30.26,NW,325,3.0,9.0,81,0.00,,,0.00,weatherlink.com 1.10,2013-07-03 18:25:00,
2013-07-03 11:40:00,61.8,56.0,30.26,North,9,1.0,7.0,82,0.00,,,0.00,weatherlink.com 1.10,2013-07-03 18:40:00,
2013-07-03 11:55:00,61.7,56.0,30.26,NNE,19,1.0,14.0,81,0.00,,,0.00,weatherlink.com 1.10,2013-07-03 18:55:00,
2013-07-03 12:10:00,61.8,56.0,30.26,NW,312,7.0,17.0,80,0.00,,,0.00,weatherlink.com 1.10,2013-07-03 19:10:00,
2013-07-03 12:25:00,62.3,56.0,30.26,WNW,284,3.0,9.0,80,0.00,,,0.00,weatherlink.com 1.10,2013-07-03 19:25:00,
2013-07-03 12:40:00,62.3,56.0,30.27,ENE,59,5.0,14.0,80,0.00,,,0.00,weatherlink.com 1.10,2013-07-03 19:40:00,
2013-07-03 12:55:00,62.6,56.0,30.26,North,5,2.0,9.0,80,0.00,,,0.00,weatherlink.com 1.10,2013-07-03 19:55:00,
2013-07-03 13:25:00,62.5,56.0,30.25,WNW,303,5.0,12.0,79,0.00,,,0.00,weatherlink.com 1.10,2013-07-03 20:25:00,
2013-07-03 13:40:00,62.8,56.0,30.26,NW,325,7.0,12.0,79,0.00,,,0.00,weatherlink.com 1.10,2013-07-03 20:40:00,
2013-07-03 13:55:00,62.4,56.0,30.27,WNW,302,7.0,12.0,79,0.00,,,0.00,weatherlink.com 1.10,2013-07-03 20:55:00,
2013-07-03 14:10:00,62.7,57.0,30.25,NW,317,5.0,13.0,81,0.00,,,0.00,weatherlink.com 1.10,2013-07-03 21:10:00,
2013-07-03 14:25:00,63.3,57.0,30.25,NNE,13,1.0,6.0,80,0.00,,,0.00,weatherlink.com 1.10,2013-07-03 21:25:00,
2013-07-03 14:40:00,63.2,57.0,30.25,WNW,292,8.0,13.0,79,0.00,,,0.00,weatherlink.com 1.10,2013-07-03 21:40:00,
2013-07-03 15:55:00,63.3,57.0,30.23,NNW,333,5.0,9.0,79,0.00,,,0.00,weatherlink.com 1.10,2013-07-03 22:55:00,
2013-07-03 16:10:00,62.5,56.0,30.23,West,266,7.0,13.0,79,0.00,,,0.00,weatherlink.com 1.10,2013-07-03 23:10:00,
2013-07-03 16:40:00,61.7,56.0,30.24,WNW,298,4.0,14.0,80,0.00,,,0.00,weatherlink.com 1.10,2013-07-03 23:40:00,
2013-07-03 16:55:00,61.7,56.0,30.24,NW,309,10.0,13.0,81,0.00,,,0.00,weatherlink.com 1.10,2013-07-03 23:55:00,
2013-07-03 17:10:00,62.1,56.0,30.23,NNW,342,1.0,15.0,81,0.00,,,0.00,weatherlink.com 1.10,2013-07-04 00:10:00,
2013-07-03 17:40:00,62.1,55.0,30.23,West,263,7.0,15.0,78,0.00,,,0.00,weatherlink.com 1.10,2013-07-04 00:40:00,
2013-07-03 17:55:00,61.7,56.0,30.23,WSW,242,8.0,15.0,80,0.00,,,0.00,weatherlink.com 1.10,2013-07-04 00:55:00,
2013-07-03 18:10:00,62.2,56.0,30.22,North,360,2.0,12.0,80,0.00,,,0.00,weatherlink.com 1.10,2013-07-04 01:10:00,
2013-07-03 18:40:00,61.6,55.0,30.22,WSW,247,7.0,14.0,79,0.00,,,0.00,weatherlink.com 1.10,2013-07-04 01:40:00,
2013-07-03 18:55:00,61.4,55.0,30.23,NW,321,8.0,11.0,80,0.00,,,0.00,weatherlink.com 1.10,2013-07-04 01:55:00,
2013-07-03 19:10:00,61.5,55.0,30.23,NE,54,2.0,12.0,80,0.00,,,0.00,weatherlink.com 1.10,2013-07-04 02:10:00,
2013-07-03 19:25:00,61.4,55.0,30.23,NNW,348,1.0,7.0,80,0.00,,,0.00,weatherlink.com 1.10,2013-07-04 02:25:00,
2013-07-03 19:55:00,61.5,55.0,30.23,NW,317,1.0,7.0,80,0.00,,,0.00,weatherlink.com 1.10,2013-07-04 02:55:00,
2013-07-03 20:25:00,60.2,54.0,30.22,NNE,22,1.0,15.0,81,0.00,,,0.00,weatherlink.com 1.10,2013-07-04 03:25:00,
2013-07-03 20:40:00,59.7,54.0,30.22,NNW,327,1.0,7.0,81,0.00,,,0.00,weatherlink.com 1.10,2013-07-04 03:40:00,
2013-07-03 20:55:00,58.9,54.0,30.22,NNE,25,3.0,4.0,83,0.00,,,0.00,weatherlink.com 1.10,2013-07-04 03:55:00,
2013-07-03 21:10:00,58.2,53.0,30.23,NW,312,7.0,11.0,84,0.00,,,0.00,weatherlink.com 1.10,2013-07-04 04:10:00,
2013-07-03 21:25:00,58.0,53.0,30.23,NW,322,0.0,6.0,84,0.00,,,0.00,weatherlink.com 1.10,2013-07-04 04:25:00,
2013-07-03 21:40:00,57.7,53.0,30.23,NNW,345,0.0,3.0,85,0.00,,,0.00,weatherlink.com 1.10,2013-07-04 04:40:00,
2013-07-03 21:55:00,57.6,53.0,30.24,NNE,22,2.0,5.0,85,0.00,,,0.00,weatherlink.com 1.10,2013-07-04 04:55:00,
2013-07-03 22:10:00,57.5,53.0,30.24,NNW,336,1.0,5.0,85,0.00,,,0.00,weatherlink.com 1.10,2013-07-04 05:10:00,
2013-07-03 22:25:00,57.3,53.0,30.24,NW,323,0.0,4.0,85,0.00,,,0.00,weatherlink.com 1.10,2013-07-04 05:25:00,
2013-07-03 22:40:00,57.0,53.0,30.23,NNW,338,0.0,2.0,85,0.00,,,0.00,weatherlink.com 1.10,2013-07-04 05:40:00,
2013-07-03 22:55:00,57.1,53.0,30.23,North,11,0.0,5.0,85,0.00,,,0.00,weatherlink.com 1.10,2013-07-04 05:55:00,
2013-07-03 23:10:00,56.9,53.0,30.22,WNW,293,0.0,2.0,85,0.00,,,0.00,weatherlink.com 1.10,2013-07-04 06:10:00,
2013-07-03 23:25:00,56.5,52.0,30.23,WNW,302,0.0,0.0,86,0.00,,,0.00,weatherlink.com 1.10,2013-07-04 06:25:00,
2013-07-03 23:40:00,55.6,52.0,30.23,WNW,302,0.0,0.0,87,0.00,,,0.00,weatherlink.com 1.10,2013-07-04 06:40:00,
2013-07-03 23:55:00,54.9,52.0,30.23,WNW,302,0.0,0.0,88,0.00,,,0.00,weatherlink.com 1.10,2013-07-04 06:55:00,